TimePDT,TemperatureF,Dew PointF,Humidity,Sea Level PressureIn,VisibilityMPH,Wind Direction,Wind SpeedMPH,Gust SpeedMPH,PrecipitationIn,Events,Conditions,WindDirDegrees,DateUTC
12:55 AM,44.1,30.9,60,30.23,10.0,NW,8.1,-,N/A,,Clear,310,2013-04-09 07:55:00
1:55 AM,42.1,30.9,65,30.24,10.0,NW,4.6,-,N/A,,Clear,320,2013-04-09 08:55:00
2:55 AM,41.0,30.9,67,30.25,10.0,WNW,6.9,-,N/A,,Mostly Cloudy,300,2013-04-09 09:55:00
3:55 AM,41.0,30.9,67,30.25,10.0,WNW,6.9,-,N/A,,Clear,290,2013-04-09 10:55:00
4:55 AM,39.9,30.0,68,30.27,10.0,NW,6.9,-,N/A,,Clear,310,2013-04-09 11:55:00
5:55 AM,39.0,30.0,70,30.29,10.0,West,5.8,-,N/A,,Clear,280,2013-04-09 12:55:00
6:55 AM,37.0,30.0,76,30.30,10.0,WSW,5.8,-,N/A,,Clear,240,2013-04-09 13:55:00
7:55 AM,41.0,32.0,70,30.31,10.0,WSW,5.8,-,N/A,,Clear,240,2013-04-09 14:55:00
8:55 AM,43.0,32.0,65,30.32,10.0,SW,4.6,-,N/A,,Clear,230,2013-04-09 15:55:00
9:55 AM,45.0,33.1,63,30.31,10.0,Calm,Calm,-,N/A,,Clear,0,2013-04-09 16:55:00
10:55 AM,50.0,35.1,57,30.31,10.0,Calm,Calm,-,N/A,,Overcast,0,2013-04-09 17:55:00
11:55 AM,51.1,33.1,50,30.30,10.0,Variable,3.5,-,N/A,,Overcast,0,2013-04-09 18:55:00
12:55 PM,52.0,35.1,53,30.29,10.0,ESE,6.9,-,N/A,,Overcast,120,2013-04-09 19:55:00
1:55 PM,55.0,37.0,51,30.26,10.0,East,6.9,-,N/A,,Partly Cloudy,100,2013-04-09 20:55:00
2:55 PM,55.9,36.0,47,30.24,10.0,Variable,3.5,-,N/A,,Clear,0,2013-04-09 21:55:00
3:55 PM,57.9,35.1,42,30.22,10.0,SE,3.5,-,N/A,,Overcast,140,2013-04-09 22:55:00
4:55 PM,59.0,34.0,39,30.21,10.0,Calm,Calm,-,N/A,,Overcast,0,2013-04-09 23:55:00
5:55 PM,59.0,32.0,36,30.20,10.0,Calm,Calm,-,N/A,,Overcast,0,2013-04-10 00:55:00
6:55 PM,57.9,35.1,42,30.19,10.0,West,6.9,-,N/A,,Overcast,280,2013-04-10 01:55:00
7:55 PM,55.9,37.0,49,30.18,10.0,NNW,6.9,-,N/A,,Overcast,330,2013-04-10 02:55:00
8:55 PM,55.0,35.1,47,30.19,10.0,NW,8.1,-,N/A,,Overcast,320,2013-04-10 03:55:00
9:55 PM,53.1,35.1,50,30.18,10.0,NNW,6.9,-,N/A,,Overcast,330,2013-04-10 04:55:00
10:55 PM,52.0,35.1,53,30.17,10.0,NW,5.8,-,N/A,,Overcast,310,2013-04-10 05:55:00
11:55 PM,50.0,35.1,57,30.15,10.0,NW,6.9,-,N/A,,Partly Cloudy,320,2013-04-10 06:55:00